Temperature
24 22 22 23 24 25 25 25 24 24 25 24 23 22 22 21 21 21 21 21 21 21 22 22 21 21 21 20 20 20 20 20 19 19 19 18 18 18 18 18 18 18 18 18
23 23 24 24 24 24 24 24 24 24 24 24 23 22 22 21 21 21 21 21 21 21 22 22 21 21 21 21 20 20 20 20 19 19 19 19 19 18 18 18 18 18 18 18
24 24 25 25 25 25 24 24 24 24 24 24 24 23 22 22 22 22 22 22 22 22 22 22 22 21 21 21 21 20 20 20 19 19 19 19 18 18 18 18 18 18 18 18
23 24 25 25 25 25 24 24 24 24 23 22 23 22 22 21 21 21 21 21 21 22 22 22 22 22 21 21 21 21 20 20 19 19 19 19 19 19 19 19 18 18 18 18
23 24 25 25 25 25 24 24 24 24 22 21 22 22 21 21 21 21 21 22 22 22 22 22 22 22 22 22 21 21 20 20 20 19 19 19 19 19 19 19 18 18 18 18
23 24 25 25 25 25 24 23 22 19 20 21 22 21 22 20 21 21 22 22 22 22 22 22 22 22 22 22 21 21 21 20 20 19 19 19 19 19 19 19 18 18 18 18
23 24 24 25 25 24 23 21 21 21 20 20 21 21 21 22 22 22 22 23 23 23 22 22 22 22 22 22 22 21 21 21 20 20 19 19 19 19 19 19 18 18 18 18
22 22 24 24 24 23 22 21 21 21 20 20 20 20 21 22 22 23 23 23 23 23 23 22 22 22 22 22 22 21 21 21 20 20 20 20 19 19 19 19 19 18 18 18
21 22 23 24 24 23 22 20 20 19 20 20 20 20 21 21 21 21 22 22 23 23 23 23 22 22 22 22 22 22 22 21 21 20 20 20 19 19 19 19 19 18 18 18
21 22 23 23 23 23 22 19 17 18 19 20 20 20 21 22 21 21 20 21 22 23 23 23 22 22 22 22 22 22 22 21 21 21 20 20 20 19 19 19 19 18 18 18
20 21 22 22 23 23 21 20 17 16 17 19 20 20 21 21 21 20 20 22 22 23 23 22 22 22 22 22 22 21 21 21 21 21 20 20 20 19 19 19 19 18 18 18
18 18 19 20 21 21 21 20 18 19 18 17 18 20 22 20 20 20 21 22 23 23 23 22 22 21 21 21 21 21 21 21 21 21 20 20 20 19 19 19 19 18 18 18
18 17 19 20 20 20 20 20 18 16 16 16 18 20 21 19 20 20 21 22 22 23 23 22 22 21 21 21 21 21 21 21 21 20 20 20 19 19 19 19 18 18 18 18
18 16 18 20 19 20 20 20 18 17 17 17 17 20 20 20 19 19 21 21 22 22 22 22 22 21 21 21 21 21 21 21 21 20 20 19 19 19 19 19 18 18 18 18
17 17 18 18 19 20 20 21 20 19 18 18 19 19 20 19 19 19 20 20 20 21 21 21 21 22 21 21 21 21 21 21 20 20 20 19 19 19 19 18 18 18 18 17
15 17 18 18 19 20 20 20 20 20 20 19 20 19 19 19 19 19 19 19 19 20 20 21 21 21 21 21 21 21 21 21 20 20 20 19 19 19 18 18 18 18 17 17
14 15 16 17 18 19 19 19 20 20 19 19 19 19 18 17 17 18 19 19 19 20 20 20 21 21 21 21 21 21 20 20 20 20 20 19 19 18 18 18 17 17 17 17
13 13 13 14 17 18 18 18 19 19 18 18 18 17 17 17 18 18 19 19 19 20 20 20 20 20 20 20 20 20 20 20 20 20 19 19 19 18 18 17 17 17 16 16
12 13 13 13 16 17 18 18 18 18 18 17 16 16 17 17 17 17 18 19 19 20 20 20 20 20 20 20 20 19 19 19 19 19 19 18 18 18 17 17 17 16 16 16
11 12 12 13 16 16 17 18 18 18 18 17 16 15 16 17 16 17 18 18 19 19 19 19 19 19 19 19 19 19 19 19 18 18 18 18 17 17 17 17 16 16 16 15
13 12 12 13 15 15 16 17 18 18 17 16 16 15 16 16 16 17 17 18 18 18 18 18 18 18 18 18 18 18 18 18 18 18 18 17 17 17 16 16 16 15 15 15
13 12 12 12 14 15 16 16 16 16 16 16 16 16 16 16 16 17 17 17 17 18 18 18 18 18 18 17 17 17 18 18 17 17 17 17 16 16 16 15 15 15 15 14
11 12 11 12 14 15 15 16 16 16 16 16 16 16 16 16 16 16 16 17 17 17 17 17 17 17 17 17 17 17 17 17 17 16 16 16 16 15 15 15 14 14 14 14
12 11 11 11 13 14 15 16 16 16 16 17 16 16 16 16 16 16 16 16 16 17 17 17 17 17 16 16 16 16 16 16 16 16 15 15 15 15 14 14 14 14 14 13
12 11 11 11 12 14 15 15 16 16 16 16 16 16 16 16 16 16 16 16 16 16 16 16 16 16 16 16 15 15 15 15 15 15 15 14 14 14 14 14 14 13 13 13
10 11 11 12 13 12 14 15 15 15 15 16 15 15 15 16 15 15 15 15 15 15 15 15 15 15 15 15 15 15 15 15 14 14 14 14 14 13 13 13 13 13 13 12
Wind_Speed
3 4 3 7 7 5 4 3 4 5 3 4 5 5 6 10 10 11 11 12 12 12 9 8 9 9 9 8 8 9 8 7 6 4 4 3 3 2 2 3 5 6 6 6
4 3 7 5 4 3 3 3 4 3 1 3 3 4 5 10 14 13 14 14 13 10 8 10 10 10 10 10 9 9 9 8 7 6 4 3 3 2 2 2 3 5 5 5
6 6 3 4 3 3 3 5 5 3 1 2 2 4 3 5 8 9 9 9 10 13 13 12 11 11 11 11 11 11 10 8 8 6 4 3 3 2 2 1 1 2 4 5
5 6 3 3 4 5 5 6 5 4 3 2 2 3 7 5 7 11 12 11 12 12 11 11 12 12 12 13 11 10 9 8 7 7 6 6 5 4 4 3 3 2 3 4
6 3 3 4 6 6 6 1 3 2 3 0 0 3 7 2 7 13 15 15 14 13 14 14 14 14 13 13 12 10 9 8 7 7 8 7 5 4 3 2 3 2 2 3
5 3 4 5 2 4 4 6 7 6 5 1 5 5 7 6 9 9 12 14 14 14 14 14 13 11 11 11 11 10 9 8 8 8 7 7 7 6 5 4 3 2 1 2
5 4 2 2 1 2 5 6 4 4 3 6 3 4 9 8 7 9 11 12 12 12 13 13 14 13 13 13 13 12 11 10 9 9 8 8 8 7 7 6 5 4 3 2
2 6 4 3 6 6 5 8 8 6 6 5 1 7 8 6 5 5 7 7 6 8 11 13 15 15 15 15 14 13 13 11 10 10 9 8 7 6 6 6 5 5 4 4
6 6 5 2 3 8 6 4 7 7 3 2 6 7 9 4 3 2 2 3 5 8 10 11 13 14 15 15 14 14 13 11 10 10 9 8 7 7 6 5 5 4 4 3
7 4 5 3 3 3 5 8 6 6 5 4 6 5 6 6 5 3 2 2 4 5 8 10 11 13 13 13 12 12 12 12 10 10 10 9 8 7 6 6 6 5 4 3
4 4 4 3 2 4 3 4 5 4 5 6 4 8 7 9 7 6 5 5 4 5 7 9 9 11 11 10 10 11 10 9 9 9 8 7 7 7 6 6 6 5 4 4
3 4 3 5 4 2 4 6 7 5 4 5 5 8 6 6 6 5 5 4 3 4 5 7 8 8 9 9 10 10 10 10 10 9 8 8 7 6 6 6 5 5 5 4
3 5 1 6 5 3 2 3 4 5 4 5 5 8 4 2 3 4 4 4 3 2 3 5 7 8 9 9 9 10 10 11 10 9 8 8 7 7 7 6 5 5 5 4
4 4 6 9 7 4 3 3 4 5 4 6 9 10 8 5 5 5 4 3 2 2 3 5 6 8 9 9 9 10 10 9 9 9 9 9 8 8 7 6 6 5 5 5
4 2 4 5 5 4 5 7 6 7 9 10 11 11 12 9 8 7 4 3 2 2 3 5 6 6 7 8 8 9 8 8 8 9 9 9 8 7 7 6 6 6 5 6
3 2 1 3 3 4 6 8 8 8 7 8 8 11 8 4 2 3 4 4 4 4 4 5 5 5 7 8 9 8 8 8 8 9 9 8 7 7 7 7 6 6 5 5
1 3 2 4 4 3 6 6 6 5 4 6 9 10 4 2 5 6 6 6 5 4 4 4 4 5 6 7 8 9 9 8 9 9 8 8 8 8 7 7 6 6 6 5
5 4 3 1 1 6 8 3 2 3 4 4 5 5 4 4 4 3 3 5 5 4 4 3 3 3 3 3 4 6 7 7 8 8 8 7 7 7 7 6 7 6 5 5
5 7 4 3 3 7 7 3 2 2 5 3 4 3 2 1 2 2 2 3 4 4 4 4 4 4 2 2 3 5 6 6 6 7 7 7 7 7 6 7 6 5 5 5
4 4 5 3 4 7 7 4 2 1 4 3 3 3 2 1 1 5 3 1 1 1 2 3 4 4 3 2 3 5 5 5 5 6 6 6 6 7 7 7 5 4 4 5
3 3 3 4 5 7 6 5 1 3 6 4 2 3 3 3 5 4 1 1 1 1 2 4 5 4 3 2 3 4 4 4 4 4 4 4 5 6 6 5 4 4 4 3
4 3 4 4 4 7 4 1 2 5 4 2 3 3 2 2 1 1 1 1 2 2 3 4 5 3 2 3 4 3 3 2 2 2 3 3 4 4 4 5 4 4 4 4
5 6 5 7 7 6 3 4 5 3 3 3 3 4 2 1 1 1 1 2 2 2 3 3 5 4 3 2 4 3 2 2 3 3 3 3 3 3 4 5 5 4 4 3
3 2 2 4 7 7 7 5 3 3 3 4 3 3 2 2 2 1 1 1 2 2 2 3 5 4 2 2 2 2 2 3 3 3 3 3 4 3 3 4 4 4 4 3
5 2 2 6 8 7 6 5 5 5 4 3 4 3 2 3 3 2 2 2 2 2 2 3 4 4 3 2 2 1 2 4 4 3 3 3 3 4 4 3 3 3 3 4
5 6 6 8 8 5 8 6 4 4 4 3 3 2 2 3 4 3 3 2 2 3 2 3 3 3 3 3 2 1 3 4 4 3 3 3 3 3 4 4 3 4 3 4
Wind_Direction
84 90 190 213 200 190 184 199 246 252 219 165 208 229 207 184 190 192 193 195 201 208 206 191 186 184 176 175 177 182 183 182 169 164 168 169 187 187 182 193 199 198 196 191
51 247 228 203 187 177 191 222 251 278 206 171 226 259 226 195 204 202 200 202 203 203 198 192 186 182 184 184 185 186 187 183 182 183 179 176 167 172 184 189 190 201 198 193
193 231 192 170 193 187 219 201 219 213 16 37 87 316 241 222 216 218 216 209 204 204 202 195 189 189 188 190 193 195 193 187 184 174 151 132 112 101 136 171 195 204 195 191
229 248 199 198 220 176 252 226 199 178 129 268 147 259 269 222 216 219 222 215 211 209 203 196 192 191 193 197 195 193 189 187 183 171 166 163 169 182 193 188 189 185 185 189
238 227 203 223 227 179 219 196 154 147 149 86 343 194 280 207 226 230 224 220 218 209 202 197 196 195 195 192 190 189 184 187 182 174 175 173 179 186 168 151 158 175 179 194
240 247 210 214 220 167 148 69 55 51 78 241 225 186 266 226 221 229 223 222 220 210 204 200 197 190 188 184 184 182 181 189 184 178 179 180 180 174 162 167 176 186 188 203
306 299 258 166 81 48 99 94 34 353 358 246 236 196 246 248 232 224 225 225 221 209 202 197 192 188 186 185 186 184 183 189 186 182 187 189 185 181 184 187 190 191 202 216
214 282 253 198 184 188 175 145 163 199 221 263 252 225 252 266 257 232 229 223 212 205 199 197 194 189 187 188 187 184 186 190 187 187 192 191 187 190 196 193 190 197 208 219
184 250 283 250 201 154 152 181 169 146 170 236 268 277 299 294 303 284 249 211 207 205 198 194 191 188 185 187 189 187 186 188 189 190 189 190 191 193 194 189 189 197 205 211
163 234 284 282 88 46 142 143 105 132 160 234 275 263 246 262 263 274 266 230 226 203 194 189 189 189 188 188 185 182 184 188 189 190 193 196 194 195 192 186 194 200 204 204
141 183 295 8 161 186 110 107 113 127 157 169 241 264 227 219 223 227 238 232 216 199 196 191 190 188 184 177 173 176 179 181 186 189 187 185 187 188 185 190 197 199 197 193
141 133 247 267 270 222 166 164 149 163 221 187 197 260 267 224 224 223 240 242 228 200 194 183 173 170 171 173 173 174 178 185 191 186 180 184 181 178 183 192 195 191 193 193
130 116 45 337 340 9 94 144 149 134 134 172 197 260 300 279 245 235 234 240 230 201 176 160 161 168 174 175 176 177 181 190 188 180 180 182 184 184 191 196 194 192 195 196
112 124 175 206 223 223 233 217 178 143 173 212 225 248 278 270 250 245 242 236 214 184 168 164 169 176 178 179 179 180 188 186 181 177 183 189 193 193 196 196 194 194 194 195
96 155 212 234 240 227 235 240 219 210 202 206 234 235 249 238 228 227 223 217 177 161 170 180 184 181 178 181 184 184 182 177 174 176 187 196 195 191 190 193 196 197 197 201
63 149 209 283 275 251 255 255 240 235 223 229 244 255 254 242 217 212 206 203 199 204 202 195 189 181 184 188 189 187 183 177 171 179 191 194 192 191 194 195 192 195 200 202
83 137 142 259 300 340 267 241 227 233 223 209 231 249 262 230 214 211 207 203 204 207 212 204 194 191 192 193 188 185 185 177 176 183 189 190 193 196 199 198 193 199 203 198
154 131 148 203 52 236 245 261 228 227 256 256 258 264 236 228 224 215 207 192 191 195 196 197 192 192 194 184 178 176 172 173 177 182 191 193 194 199 197 195 202 206 202 202
169 149 145 150 212 270 290 277 192 206 277 300 292 302 327 24 34 328 281 208 196 196 186 180 175 171 160 152 159 161 165 170 181 191 197 199 196 197 196 198 204 203 196 202
76 112 132 153 189 233 251 288 296 118 274 318 341 308 278 80 230 261 275 245 204 170 159 150 133 115 121 138 135 145 157 162 190 204 204 200 194 195 200 201 198 193 191 202
55 73 151 185 217 255 264 295 5 179 254 297 292 278 230 220 234 246 253 270 191 150 146 130 119 123 137 139 124 140 155 181 203 197 186 183 187 189 191 189 183 176 183 186
181 168 185 168 201 249 282 1 183 235 272 280 276 270 266 262 261 215 201 184 140 112 122 131 130 131 129 135 132 145 177 200 177 163 165 173 176 183 178 165 167 166 166 172
201 195 194 197 220 251 271 248 261 239 272 279 266 283 239 192 183 175 193 170 150 136 131 138 139 130 117 130 141 161 202 168 144 147 167 172 166 166 164 164 165 161 158 168
261 177 184 257 266 276 284 284 287 271 270 279 276 283 238 204 198 186 172 150 138 129 134 135 132 129 133 136 140 170 166 140 138 151 164 161 154 149 149 157 162 165 170 172
240 203 229 260 276 296 300 295 297 308 318 327 323 303 229 178 178 180 179 170 160 143 140 144 151 158 170 160 148 141 140 137 140 145 148 149 152 150 145 142 152 162 174 178
221 203 210 244 251 249 276 288 292 292 292 289 299 297 258 181 179 179 188 186 155 149 151 150 152 167 178 167 159 153 151 148 147 148 156 157 147 141 138 129 99 64 87 109
Height
1486 1493 1499 1496 1494 1495 1498 1502 1505 1499 1492 1496 1499 1499 1497 1498 1500 1501 1503 1504 1505 1507 1510 1514 1516 1519 1522 1524 1526 1528 1530 1532 1534 1535 1537 1538 1540 1542 1543 1545 1546 1548 1549 1551
1492 1495 1489 1488 1490 1493 1496 1502 1503 1497 1492 1495 1500 1499 1495 1496 1495 1495 1497 1499 1501 1505 1508 1511 1513 1517 1519 1521 1524 1526 1528 1530 1532 1534 1536 1538 1539 1541 1543 1544 1545 1547 1549 1550
1491 1489 1484 1487 1490 1494 1496 1500 1499 1499 1496 1495 1500 1504 1498 1495 1495 1496 1496 1497 1500 1502 1504 1507 1510 1513 1516 1519 1522 1524 1526 1529 1531 1533 1535 1537 1538 1540 1541 1543 1544 1546 1547 1549
1487 1483 1484 1486 1489 1490 1499 1489 1491 1495 1504 1512 1506 1520 1501 1495 1494 1493 1493 1494 1495 1497 1500 1503 1506 1510 1513 1516 1519 1522 1525 1527 1530 1532 1533 1535 1536 1537 1539 1542 1543 1545 1546 1548
1486 1481 1482 1485 1484 1485 1489 1485 1489 1494 1504 1512 1510 1517 1507 1495 1495 1489 1486 1487 1489 1491 1495 1498 1501 1505 1509 1513 1516 1520 1522 1525 1527 1530 1531 1533 1535 1537 1539 1541 1542 1543 1545 1546
1480 1477 1478 1479 1478 1480 1483 1489 1496 1505 1512 1523 1512 1517 1511 1497 1488 1482 1480 1481 1483 1486 1489 1493 1497 1501 1505 1509 1513 1517 1520 1522 1525 1527 1529 1531 1533 1535 1537 1539 1541 1542 1543 1545
1485 1479 1475 1475 1480 1482 1486 1503 1522 1524 1532 1527 1510 1512 1505 1482 1477 1476 1475 1476 1478 1481 1484 1488 1492 1496 1500 1504 1508 1512 1516 1519 1522 1524 1526 1529 1531 1533 1535 1537 1539 1540 1542 1543
1496 1495 1478 1475 1479 1486 1489 1498 1522 1532 1534 1524 1512 1512 1492 1476 1473 1472 1472 1472 1474 1477 1479 1483 1486 1490 1495 1500 1504 1508 1512 1516 1519 1521 1524 1526 1528 1531 1533 1535 1537 1538 1539 1540
1496 1493 1475 1472 1472 1477 1489 1497 1497 1515 1520 1524 1517 1503 1486 1473 1471 1470 1469 1469 1470 1472 1475 1478 1482 1486 1491 1495 1500 1504 1508 1512 1515 1518 1521 1524 1526 1528 1530 1532 1534 1536 1537 1538
1483 1490 1478 1473 1472 1476 1480 1490 1505 1516 1527 1529 1516 1507 1497 1478 1473 1470 1468 1468 1468 1470 1472 1475 1479 1482 1487 1491 1496 1500 1504 1508 1512 1515 1518 1521 1523 1525 1527 1529 1531 1533 1534 1535
1479 1489 1484 1478 1479 1482 1486 1492 1501 1512 1514 1525 1525 1508 1476 1472 1469 1469 1467 1467 1467 1468 1470 1473 1476 1479 1484 1489 1493 1497 1501 1504 1508 1512 1514 1517 1520 1522 1524 1526 1528 1530 1531 1532
1480 1489 1495 1486 1476 1475 1477 1485 1496 1507 1512 1516 1517 1501 1466 1466 1465 1466 1466 1466 1466 1468 1469 1471 1474 1478 1482 1486 1489 1494 1497 1501 1504 1508 1511 1514 1516 1519 1521 1523 1525 1527 1528 1529
1479 1490 1501 1496 1490 1481 1481 1483 1489 1497 1507 1516 1514 1495 1465 1464 1464 1464 1465 1465 1465 1466 1468 1471 1473 1476 1480 1483 1487 1490 1494 1497 1501 1505 1508 1510 1513 1515 1518 1520 1522 1524 1525 1526
1475 1488 1495 1499 1493 1485 1483 1482 1485 1492 1504 1507 1500 1485 1470 1466 1465 1463 1463 1463 1464 1465 1467 1469 1471 1474 1477 1481 1484 1487 1490 1494 1498 1501 1504 1507 1509 1512 1514 1516 1518 1520 1521 1522
1475 1486 1485 1483 1480 1479 1478 1477 1479 1483 1486 1491 1483 1479 1467 1462 1461 1461 1461 1462 1463 1464 1465 1467 1469 1472 1475 1478 1481 1484 1487 1491 1495 1498 1500 1503 1506 1508 1510 1512 1514 1515 1517 1518
1478 1484 1483 1482 1477 1476 1475 1472 1472 1473 1474 1475 1472 1470 1458 1458 1459 1459 1460 1461 1462 1462 1464 1466 1468 1470 1472 1475 1478 1482 1484 1488 1491 1494 1497 1500 1502 1504 1506 1507 1509 1511 1512 1513
1482 1485 1489 1490 1481 1477 1481 1470 1468 1468 1466 1467 1469 1462 1457 1457 1457 1457 1458 1459 1461 1462 1463 1465 1466 1468 1471 1473 1475 1478 1482 1485 1487 1490 1493 1496 1498 1500 1501 1503 1504 1506 1507 1509
1481 1487 1493 1494 1486 1492 1475 1463 1462 1463 1463 1461 1460 1457 1455 1454 1454 1456 1457 1457 1459 1460 1462 1464 1465 1468 1470 1472 1474 1476 1479 1482 1484 1486 1489 1492 1494 1495 1496 1498 1499 1501 1503 1504
1475 1483 1492 1496 1494 1484 1470 1462 1462 1464 1463 1459 1459 1456 1455 1454 1455 1456 1456 1457 1457 1458 1460 1462 1464 1466 1467 1469 1471 1474 1476 1479 1481 1483 1485 1487 1489 1490 1492 1493 1495 1497 1498 1500
1476 1479 1489 1494 1491 1490 1471 1459 1457 1460 1464 1458 1457 1457 1456 1455 1458 1455 1455 1455 1456 1457 1459 1460 1462 1464 1466 1468 1470 1471 1473 1474 1477 1478 1481 1483 1485 1486 1488 1489 1491 1492 1494 1495
1482 1485 1488 1490 1488 1478 1464 1458 1457 1469 1466 1456 1455 1455 1455 1454 1454 1452 1453 1454 1455 1456 1457 1459 1461 1463 1465 1466 1467 1468 1470 1471 1474 1476 1478 1479 1481 1482 1483 1485 1487 1488 1490 1491
1481 1485 1487 1489 1487 1479 1459 1458 1461 1461 1455 1454 1453 1453 1453 1452 1450 1450 1451 1451 1452 1454 1455 1457 1459 1461 1463 1464 1465 1466 1467 1469 1471 1473 1474 1475 1477 1478 1479 1481 1482 1484 1485 1486
1477 1475 1476 1476 1473 1461 1457 1457 1456 1455 1453 1452 1452 1451 1451 1449 1449 1449 1449 1450 1451 1452 1453 1455 1457 1459 1461 1462 1463 1464 1465 1467 1468 1469 1470 1472 1473 1475 1476 1477 1478 1479 1481 1482
1470 1469 1470 1469 1461 1457 1455 1454 1452 1452 1451 1450 1449 1449 1448 1448 1448 1448 1448 1449 1450 1451 1452 1454 1455 1457 1458 1460 1461 1462 1464 1465 1466 1466 1467 1469 1470 1471 1472 1473 1475 1476 1477 1479
1467 1467 1467 1465 1459 1455 1452 1451 1450 1449 1448 1447 1447 1447 1447 1446 1446 1447 1447 1448 1448 1450 1452 1453 1454 1455 1456 1458 1459 1460 1461 1462 1463 1464 1465 1466 1467 1468 1469 1470 1472 1473 1474 1476
1462 1463 1464 1461 1455 1455 1451 1449 1448 1447 1446 1444 1444 1444 1444 1444 1445 1446 1446 1447 1448 1449 1451 1452 1452 1453 1455 1456 1457 1458 1459 1460 1461 1461 1462 1463 1464 1466 1467 1468 1470 1471 1473 1475